Location: Unspecified
(35.7250°N, 0.0000°E)
Time: 09:36:43
(UTC+00:00)

Vanguard 2 - Pass Details

Date: 22 June 2019
Orbit: 553 x 2938 km, 32.9° (Epoch: 17 August)

Event Time Altitude Azimuth Distance (km) Brightness Sun altitude
Rises 16:25:56 0° 264° (W) 5,776 13.0 32.4°
Reaches altitude 10° 16:33:25 10° 239° (WSW) 5,269 12.6 30.9°
Maximum altitude 16:38:33 12° 219° (SW) 5,318 12.3 29.8°
Drops below altitude 10° 16:44:05 10° 200° (SSW) 5,684 12.2 28.7°
Sets 16:53:22 0° 176° (S) 6,768 12.2 26.9°
